Retour au catalogue

TITAN 3C TRANSTAGE DEB

ActifMEO
NORAD 38702·DEBRIS·🇺🇸 United States

Lancé Sep 26, 1968 depuis Cape Canaveral Space Force Station

Loading…

Prochains Passages (prochaines 24 heures)

TLE

FraisSource: Space-Track

Époque: Sep 13, 2026, 15:18 UTC

1 38702U 68081AC  26256.63809173 -.00000003  00000-0  00000-0 0  9995
2 38702   1.3131  52.2025 0222295  37.8872 324.5559  1.02228046 70627

Suivez TITAN 3C TRANSTAGE DEB en temps réel avec AllMySat

Download on the App Store